Theta_e
325 325 325 324 323 323 322 322 323 323 322 323 323 323 322 323 325 321 316 323 324 326 325 325 325 324 326 321 320 320 307 303 306 307 308 313 311 314 316 316 319 323 322 326 330
325 325 325 325 324 323 322 323 323 323 323 322 321 322 321 323 317 312 324 326 327 329 321 318 315 319 315 316 317 312 305 304 310 312 310 312 313 314 313 313 316 320 326 327 330
324 324 324 324 324 323 323 323 322 323 323 322 323 321 321 323 307 304 326 330 331 327 323 323 321 317 310 315 314 310 303 308 310 313 313 312 312 315 313 311 314 315 320 323 327
323 323 323 323 323 324 323 323 322 322 322 322 323 322 321 318 292 313 324 325 332 328 322 320 316 312 308 307 311 307 310 308 310 313 311 311 314 312 313 314 318 319 320 322 323
321 321 322 322 322 323 323 323 322 322 322 322 323 322 316 306 303 316 321 324 324 323 318 316 312 310 304 305 309 309 306 311 313 311 312 313 311 312 313 318 320 319 318 318 321
319 320 321 321 321 322 323 323 322 322 321 322 322 322 311 299 313 316 318 321 319 319 317 316 313 314 309 306 307 308 308 308 311 312 313 310 309 311 312 316 317 318 318 319 319
318 319 320 320 321 321 322 322 322 322 321 322 322 315 306 303 315 316 318 320 318 317 313 318 317 313 309 306 311 309 305 307 308 310 309 311 305 305 311 313 312 313 317 318 319
316 317 318 320 320 321 321 321 321 321 321 321 321 313 301 312 315 315 318 319 321 317 315 318 320 314 309 312 308 304 303 296 303 306 308 308 296 304 310 310 309 310 312 313 317
314 315 317 318 319 320 320 320 320 321 322 320 312 308 298 313 307 311 315 313 317 317 317 318 318 309 310 302 298 300 293 295 297 305 304 304 299 304 309 308 308 309 310 311 312
310 314 315 317 318 319 319 320 320 319 317 315 311 302 304 301 306 309 313 317 312 312 309 311 309 303 303 298 289 292 294 295 295 301 303 300 300 304 307 308 308 309 310 311 312
307 309 314 316 318 319 318 314 305 301 307 300 300 300 302 307 310 305 311 313 311 307 298 304 299 295 298 300 299 296 295 294 297 301 298 298 298 300 302 304 305 306 308 309 309
308 307 307 315 317 318 317 307 305 306 296 304 302 303 305 307 299 302 311 303 302 296 300 298 294 299 301 300 298 297 294 293 297 300 298 296 295 299 301 302 303 303 304 306 309
308 307 307 308 315 314 310 309 312 310 295 297 301 301 301 305 298 298 306 303 299 296 296 294 295 300 298 297 295 296 294 293 292 296 298 296 294 296 301 304 304 306 307 308 309
307 306 305 305 308 310 306 314 311 309 287 290 294 299 301 303 296 303 307 302 299 294 296 296 299 296 296 295 296 291 297 295 294 293 288 297 286 295 299 300 303 305 306 308 310
307 306 306 306 305 303 310 314 310 303 276 292 293 305 303 297 298 298 306 302 295 295 296 293 295 294 293 295 297 293 298 295 294 292 291 292 288 292 298 296 300 303 305 307 308
306 306 305 302 299 309 314 313 302 282 276 287 293 293 293 296 296 299 299 304 302 296 297 295 299 298 297 298 299 299 296 296 295 292 284 290 289 289 292 295 298 301 303 304 305
306 305 304 302 297 309 313 301 283 278 287 284 286 292 292 291 292 294 293 293 290 285 286 292 292 297 298 294 298 296 292 283 281 282 281 290 288 290 296 298 299 300 302 304 306
305 305 304 301 301 303 306 289 278 285 285 289 290 291 287 291 290 292 291 289 294 292 288 285 282 292 297 294 291 293 291 284 277 279 282 289 284 289 298 300 301 302 304 306 306
304 301 299 302 302 300 291 283 282 286 288 288 289 285 286 288 289 290 290 290 293 293 286 285 284 294 296 296 295 291 287 293 285 285 282 286 290 295 298 298 300 301 302 303 305
298 296 295 303 303 295 283 281 287 289 291 291 283 287 283 285 287 288 288 292 291 295 295 290 283 290 293 296 295 293 295 285 287 277 276 282 284 286 292 294 298 298 301 303 305
296 287 297 303 300 286 280 281 286 292 293 289 287 285 286 285 288 287 288 292 294 293 295 291 288 285 291 289 288 289 288 289 289 285 279 278 283 293 293 295 296 299 301 302 304
291 282 299 300 284 284 280 285 290 290 295 292 293 290 288 289 288 287 287 290 297 296 290 292 288 282 285 292 294 293 289 289 284 281 284 283 284 296 296 297 297 297 300 302 302
285 287 298 296 279 280 285 285 285 288 290 290 290 292 292 289 285 288 290 296 296 294 291 292 287 280 282 286 291 289 291 291 291 289 284 282 284 295 296 296 298 299 299 300 302
286 280 287 290 289 283 281 282 284 291 291 293 291 293 290 288 290 288 289 294 293 296 296 295 288 284 280 283 287 284 288 291 290 284 284 285 287 291 294 295 296 297 299 300 300
285 285 286 282 283 284 284 286 284 283 288 292 289 290 289 285 287 286 291 289 292 295 295 293 284 286 287 288 288 287 286 288 287 289 285 287 287 291 294 295 296 298 299 298 297
285 285 286 286 287 284 284 284 286 286 286 285 287 291 291 287 287 285 289 288 287 292 293 293 286 287 282 287 287 284 287 288 288 289 289 289 288 295 296 296 296 297 296 295 299
289 293 291 287 286 284 284 285 286 289 289 291 291 290 289 291 294 294 294 293 291 290 290 290 286 284 280 285 285 280 284 286 288 290 290 286 290 295 294 295 296 296 297 298 298
Wind_Speed
20 19 18 17 16 15 14 12 10 9 8 7 5 6 6 7 10 9 11 2 4 3 6 4 5 5 6 5 5 5 10 12 14 11 8 6 7 4 2 5 3 1 3 6 12
21 21 20 19 18 16 15 13 11 10 10 8 6 5 5 6 11 15 4 2 3 2 7 6 7 7 9 9 4 10 12 17 14 8 7 8 8 7 6 8 8 8 5 5 12
22 22 22 20 19 18 17 15 12 11 11 8 7 4 4 7 9 7 11 7 6 5 4 4 7 7 11 7 10 9 16 14 10 6 8 8 9 5 8 8 7 7 8 10 12
19 22 23 22 20 19 18 16 14 11 12 9 8 6 3 8 8 4 6 3 6 9 7 4 6 9 9 11 13 11 13 17 11 3 5 10 10 8 12 13 3 4 2 9 11
18 19 22 22 21 21 20 18 15 14 12 11 10 8 5 9 11 5 4 2 10 10 11 10 10 11 11 8 7 14 16 12 13 3 9 4 12 15 16 14 13 7 7 9 10
19 18 19 22 22 22 21 19 17 14 14 13 12 9 10 15 3 1 3 2 12 13 13 12 6 7 6 8 10 4 15 12 9 12 10 12 17 17 13 18 17 14 15 14 13
19 19 19 22 23 23 22 20 18 15 15 15 14 11 15 14 3 2 5 4 9 14 12 10 7 7 4 5 6 6 7 11 14 16 15 10 19 23 20 18 18 17 16 15 17
22 20 20 20 23 24 23 21 19 17 15 15 13 12 14 12 10 4 5 5 6 10 10 8 4 10 6 5 4 7 10 13 13 16 7 8 18 13 17 20 20 21 20 19 19
20 22 21 21 22 24 24 22 20 17 16 14 10 12 7 5 12 16 6 8 8 9 7 4 8 9 8 9 10 10 11 17 17 7 12 15 14 10 9 16 17 16 16 14 15
19 22 23 23 23 25 24 23 19 14 14 10 2 10 6 11 11 12 11 9 9 12 8 10 8 10 13 12 11 12 16 15 12 5 12 18 20 18 15 15 16 17 17 17 18
18 17 25 26 25 26 21 10 9 7 21 11 9 9 1 10 8 13 16 14 11 15 13 17 15 18 19 20 15 4 13 12 10 4 8 16 21 21 20 20 19 19 20 21 23
22 22 18 26 27 27 21 18 24 6 14 24 6 23 4 12 8 14 17 15 17 17 17 13 20 17 17 17 17 18 10 10 8 8 12 18 24 23 23 22 21 21 21 23 22
23 22 20 24 27 21 25 29 19 19 6 18 14 19 9 13 12 20 23 19 20 20 23 17 2 21 17 16 17 17 18 13 14 13 16 20 26 22 19 23 22 22 23 21 22
24 22 23 21 24 21 25 24 17 12 7 12 15 11 12 10 11 15 20 21 12 22 19 17 16 11 19 20 16 16 14 11 13 8 6 5 12 15 14 15 13 12 14 16 18
23 23 29 25 8 21 24 19 17 0 17 20 19 13 23 22 15 16 21 21 17 16 18 11 16 15 21 16 16 10 6 8 12 11 13 14 10 6 10 12 16 10 10 13 14
26 23 23 16 13 20 20 20 11 12 13 16 20 24 21 23 15 21 22 17 14 15 21 17 1 10 16 14 15 6 7 8 7 7 10 14 15 16 15 15 16 12 6 7 10
24 25 21 13 13 9 17 10 19 21 13 7 25 33 35 20 20 22 28 24 16 10 14 10 8 4 7 15 13 12 13 5 6 6 9 4 13 19 2 8 10 12 11 12 10
27 24 20 14 14 14 15 19 26 19 17 9 20 33 30 28 22 24 29 26 26 21 15 15 11 18 15 19 10 21 18 6 8 9 7 12 14 10 4 5 11 11 13 11 11
23 14 13 15 14 12 13 30 26 23 17 19 27 31 19 23 15 22 32 30 30 29 15 18 19 22 21 14 16 17 21 15 4 3 3 11 18 18 18 16 14 15 13 12 7
12 13 18 18 19 13 12 18 14 14 22 30 17 21 20 24 19 22 28 28 30 30 24 11 11 10 13 15 17 14 14 9 10 7 9 14 18 15 3 4 13 9 2 6 5
12 9 12 18 9 7 10 14 9 22 28 27 22 13 18 23 25 29 29 17 31 31 26 13 9 7 13 19 20 12 14 14 11 12 9 11 12 9 13 8 9 3 3 8 12
11 15 10 17 14 4 12 5 4 29 29 16 20 25 26 31 27 28 25 25 34 26 32 22 7 7 20 9 18 24 21 22 10 12 10 14 22 6 5 6 5 13 11 10 14
11 6 7 15 14 15 4 9 1 22 30 22 17 13 26 23 17 24 26 24 19 28 26 21 9 8 7 6 14 15 22 19 22 14 11 13 16 9 13 9 5 6 12 13 16
7 6 6 9 5 10 10 17 14 23 23 19 22 20 27 23 13 23 21 20 6 26 17 20 11 18 17 10 13 19 22 24 19 12 24 18 29 27 20 17 14 16 14 16 16
7 6 8 9 12 12 15 14 17 14 5 21 26 26 28 19 19 16 22 12 12 18 19 14 17 17 22 11 9 13 20 24 26 30 22 28 27 31 22 18 15 16 18 16 18
6 5 2 6 15 19 21 9 28 16 14 11 19 30 28 21 24 23 30 17 17 20 26 18 4 16 8 14 9 10 15 24 27 31 25 30 24 30 19 19 19 14 15 17 13
4 2 3 12 11 10 15 8 20 25 9 19 33 24 26 24 25 21 19 20 11 30 30 22 8 8 15 9 6 6 29 22 25 25 26 26 33 28 19 16 13 14 15 14 12
Wind_Direction
217 216 212 210 212 216 219 226 226 226 221 245 256 289 299 310 297 261 255 9 324 353 292 276 230 244 253 245 269 288 246 248 236 237 247 141 206 146 94 260 206 199 315 74 128
225 214 213 210 208 210 217 222 218 221 208 222 233 264 285 299 276 265 234 357 286 241 263 242 211 200 222 245 228 232 237 241 255 262 246 185 225 169 206 196 215 217 154 140 151
229 224 212 211 207 206 208 215 214 213 204 207 203 217 254 266 272 253 19 189 240 241 255 283 276 210 226 244 220 230 247 252 249 262 273 227 221 199 227 229 221 214 199 176 182
230 225 221 210 205 205 204 207 210 208 199 195 183 193 224 222 236 62 22 288 204 242 227 187 212 204 214 213 224 253 245 262 274 142 239 230 242 217 234 246 55 263 265 174 197
227 227 223 214 207 202 202 202 204 199 197 189 178 174 196 216 248 100 318 132 200 210 214 208 206 212 217 234 208 247 255 248 252 227 248 264 236 246 254 245 257 242 217 220 215
231 221 220 217 209 203 199 199 200 198 192 187 177 177 230 230 48 280 270 217 211 205 212 214 228 214 284 234 216 332 251 240 246 254 244 237 246 243 238 250 252 235 239 245 239
238 223 216 215 211 204 200 196 196 194 192 190 180 195 225 231 89 286 211 237 214 212 209 209 215 210 192 231 231 229 236 239 249 248 244 250 255 245 247 255 264 257 238 242 255
239 228 222 213 210 207 199 195 190 189 189 194 185 205 230 225 238 250 208 190 201 217 229 210 218 233 220 100 179 233 241 250 239 227 233 228 264 252 229 254 253 254 255 254 241
251 236 219 218 210 205 200 192 191 186 187 187 182 210 224 104 207 216 225 203 180 183 197 205 211 212 184 206 218 208 245 230 248 218 241 219 272 262 262 253 258 263 258 259 263
278 244 231 218 214 206 197 188 186 181 187 192 255 192 234 208 185 203 192 210 167 180 178 193 198 203 208 204 209 226 227 251 242 211 238 255 255 265 268 261 270 274 273 268 263
250 283 240 225 215 206 193 184 178 190 193 186 180 216 56 171 169 201 178 190 192 190 189 194 199 208 204 216 234 314 282 248 239 224 282 259 268 269 269 261 256 256 262 263 261
231 246 303 230 217 211 198 208 187 144 189 217 201 206 150 172 169 190 176 178 188 197 199 181 223 214 222 227 230 242 251 253 256 258 280 283 276 273 264 258 253 253 254 257 261
231 229 257 290 222 211 209 205 182 161 176 200 197 205 181 193 200 191 188 194 192 194 198 196 181 212 217 221 228 232 242 248 268 292 284 280 281 263 245 245 245 247 250 255 260
238 234 233 257 228 209 215 199 196 183 200 177 192 204 183 199 221 195 197 188 189 204 197 230 223 201 210 220 210 228 223 251 267 272 267 59 295 287 292 275 248 237 242 255 258
232 227 219 224 275 213 206 197 171 21 221 161 172 165 173 179 127 199 184 208 203 183 193 202 207 197 212 211 205 233 215 225 242 254 283 268 273 269 246 263 263 241 240 257 270
221 225 226 237 258 218 199 178 156 208 226 162 154 171 164 197 189 152 177 211 217 211 205 215 37 224 219 204 205 192 179 203 228 238 248 241 236 270 253 242 263 272 263 274 284
220 219 215 208 253 240 189 182 191 214 131 187 162 167 179 173 176 171 176 186 178 163 204 211 199 189 251 198 195 187 183 179 213 222 251 202 217 245 14 316 283 287 294 294 298
220 218 215 213 201 246 209 194 224 183 161 148 166 171 182 167 185 182 175 188 201 200 169 192 203 203 195 190 181 192 188 193 211 215 254 202 241 248 265 289 252 268 289 291 287
210 219 218 214 203 228 252 211 205 185 138 153 167 173 175 176 154 179 189 195 194 193 195 194 220 179 178 196 179 197 215 218 320 189 274 239 250 260 255 243 249 260 270 287 291
207 212 219 198 198 205 231 255 208 138 157 158 165 179 173 171 164 186 193 205 199 202 217 177 192 190 163 201 211 200 191 191 214 219 232 243 249 250 176 239 208 276 329 337 356
202 204 212 188 168 203 246 246 207 162 160 175 161 162 171 171 182 187 189 181 195 200 206 206 204 184 152 207 185 184 203 214 199 228 232 261 254 256 255 221 251 255 274 331 337
195 215 172 163 203 208 208 248 185 174 169 181 166 162 171 178 185 190 199 207 193 187 194 202 189 166 204 194 223 210 214 203 199 208 236 265 268 240 204 160 270 275 314 331 320
199 173 168 167 209 211 239 207 227 187 178 155 164 164 170 169 187 191 204 190 188 187 185 185 186 146 171 266 224 231 224 224 233 249 229 220 254 201 237 252 259 252 317 323 315
173 186 222 198 174 210 225 255 178 196 176 167 167 161 165 176 176 183 199 182 173 193 181 171 190 203 200 212 155 205 219 223 227 234 239 240 260 265 266 281 292 318 321 314 313
191 193 171 160 178 187 234 199 178 170 201 188 176 171 160 164 178 180 187 148 176 199 182 187 215 212 230 215 179 201 210 216 217 229 225 240 244 263 272 285 318 314 304 315 318
205 219 177 153 151 175 222 239 181 168 157 182 172 164 171 164 171 176 177 173 178 190 186 201 205 223 235 243 245 245 220 220 223 231 239 249 259 259 280 305 289 293 316 311 318
245 241 216 158 150 166 208 199 195 156 196 176 177 169 183 177 184 182 162 173 167 178 185 191 169 170 236 186 207 280 232 225 229 232 228 238 243 258 271 270 298 310 306 305 324